User: anonymous   Login
Location: Killarney
(45.9719°N, 81.5115°W)
Time: 16:26:13
(UTC-04:00)
Language:

ISS - Orbit

View from above orbital plane
View from above orbital plane
View from above satellite
View from above satellite

Ground track
Ground track

The orbit data is extracted from the following two-line orbital elements,

1 25544U 98067A   24197.47022564  .00037376  00000-0  66107-3 0  9992
2 25544  51.6386 175.2216 0010196  69.1503  75.6337 15.49894403462938
Epoch (UTC): 15 July 2024 11:17:07
Eccentricity: 0.0010196
inclination: 51.6386°
perigee height: 410 km
apogee height: 424 km
right ascension of ascending node: 175.2216°
argument of perigee: 69.1503°
revolutions per day: 15.49894403
mean anomaly at epoch: 75.6337°
orbit number at epoch: 46293

The dashed part of the orbit path shows where the satellite is in the earth's shadow,  

DLR